Regional Weather Roundup
Issued by NWS

Home | Current Version | Previous Version | Graphics & Text | Print | Product List | Glossary Off
Versions: 1 2 3 4 5 6 7 8 9 10 11 12 13 14 15 16 17 18 19 20 21 22 23 24 25 26 27 28 29 30 31 32 33 34 35 36 37 38 39 40 41 42 43 44 45 46 47 48 49 50

000
ASUS43 KTOP 022159
RWRKS

WEATHER ROUNDUP FOR KANSAS
NATIONAL WEATHER SERVICE GOODLAND KS
500 PM CDT MON MAY 02 2016

NOTE:  "FAIR" INDICATES FEW OR NO CLOUDS BELOW 12,000 FEET WITH NO
SIGNIFICANT WEATHER AND/OR OBSTRUCTIONS TO VISIBILITY.

KSZ001>006-013>018-027>032-041>047-022300-
NORTHWEST KANSAS

CITY           SKY/WX    TMP DP  RH WIND       PRES   REMARKS
GOODLAND       SUNNY     62  29  28 NW13      30.09F
HAYS           MOSUNNY   63  36  36 NW7       30.07F
HILL CITY      SUNNY     66  32  28 NW10      30.07F
RUSSELL        MOSUNNY   64  39  39 NW8       30.06F
$$

KSZ061>065-074>080-084>089-022300-
SOUTHWEST KANSAS

CITY           SKY/WX    TMP DP  RH WIND       PRES   REMARKS
DODGE CITY     MOSUNNY   61  33  35 NW12      30.11F
ELKHART          N/A     60  34  37 W7          N/A
GARDEN CITY    SUNNY     59  30  33 VRB3      30.11F
GREAT BEND     SUNNY     61  37  41 W8        30.08F
LIBERAL        SUNNY     59  34  38 NW5       30.14F
$$

KSZ066>073-081>083-090>101-022300-
SOUTHEAST KANSAS

CITY           SKY/WX    TMP DP  RH WIND       PRES   REMARKS
CHANUTE        CLOUDY    56  45  66 CALM      30.08F
COFFEYVILLE    CLOUDY    58  44  60 N10       30.09F
HUTCHINSON     PTSUNNY   63  36  36 W10G16    30.08F
MEDICINE LODGE   N/A     64  39  39 N8        30.09F
NEWTON         CLOUDY    61  39  44 N10       30.10F
PARSONS        CLOUDY    58  46  64 NW6       30.09F
WICHITA INTL   PTSUNNY   63  40  42 NW12      30.08F
WICHITA JABRA  CLOUDY    60  41  49 N7        30.08F
WINFIELD       PTSUNNY   60  43  53 NW8       30.17S
$$

KSZ007>012-019>026-033>040-048>060-102>105-022300-
NORTHEAST KANSAS

CITY           SKY/WX    TMP DP  RH WIND       PRES   REMARKS
CONCORDIA      MOSUNNY   61  36  39 W6        30.07F
EMPORIA        CLOUDY    60  42  51 NE10      30.07F
LAWRENCE       CLOUDY    56  45  66 CALM      30.08F
MANHATTAN      PTSUNNY   64  38  38 VRB5      30.07F
OLATHE IND     CLOUDY    54  46  74 NW5       30.08F
OLATHE EXE     CLOUDY    52  46  80 NW3       30.08S
SALINA         MOSUNNY   65  38  36 NW8       30.08F
TOPEKA BILLARD CLOUDY    58  43  57 N7        30.07F
TOPEKA FORBES  CLOUDY    59  44  57 N8        30.07F
$$




USA.gov is the U.S. government's official web portal to all federal, state and local government web resources and services.